Station CPMW1 - 9449419 - Cherry Point South Dock Met, WA Image indicating link to RSS feed of recent meteorological observations for station CPMW1


Conditions at CPMW1 as of
(2:00 am PDT)
0900 GMT on 05/29/2024:
     

Click on the graph icon in the table below to see a time series plot of the last five days of that observation.

5-day plot - Wind Direction Wind Direction (WDIR):SSW ( 200 deg true )
5-day plot - Wind Speed Wind Speed (WSPD): 7.0 kts
5-day plot - Wind Gust Wind Gust (GST): 8.0 kts
5-day plot - Air Temperature Air Temperature (ATMP): 50.7 °F
5-day plot - Wind Chill Wind Chill (CHILL): 47.7 °F
5-day plot -  Wind Speed, Wind Gust and Atmospheric Pressure Combined plot of Wind Speed, Gust, and Air Pressure
NOS Water Level Observation Network Water Level
Previous observations
TIME
(PDT)
5-day plot - Wind Direction
WDIR
 
5-day plot - Wind Speed
WSPD
kts
5-day plot - Wind Gust
GST
kts
5-day plot - Wave Height
WVHT
ft
5-day plot - Dominant Wave Period
DPD
sec
5-day plot - Average Wave Period
APD
sec
5-day plot - Mean Wave Direction
MWD
 
5-day plot - Atmospheric Pressure
PRES
in
5-day plot - Pressure Tendency
PTDY
in
5-day plot - Air Temperature
ATMP
°F
5-day plot - Water Temperature
WTMP
°F
5-day plot - Dew Point
DEWP
°F
5-day plot - Salinity
SAL
psu
5-day plot - Visibility
VIS
nmi
5-day plot - Tide (above MLLW)
TIDE
ft
2024-05-29 01:54 amSSW 8.0 8.9------ 50.7-----
2024-05-29 01:48 amSSW 8.0 8.9------ 50.7-----
2024-05-29 01:42 amSSW 8.0 8.9------ 50.7-----
2024-05-29 01:36 amSSW 8.0 8.9------ 50.7-----
2024-05-29 01:30 amSSW 8.0 8.9------ 50.7-----
2024-05-29 01:24 amSSW 8.0 8.9------ 50.9-----
2024-05-29 01:18 am S 8.0 8.9------------
2024-05-29 01:12 am S 7.0 8.9------ 51.1-----
2024-05-29 01:06 amSSW 6.0 7.0------ 50.5-----
2024-05-29 01:00 am S 6.0 7.0------ 50.4-----
2024-05-29 12:54 amSSW 6.0 7.0------ 50.5-----
2024-05-29 12:48 am S 5.1 6.0------------
2024-05-29 12:42 amSSE 4.1 8.0------ 50.4-----
2024-05-29 12:36 amSSW 6.0 8.0------ 50.5-----
2024-05-29 12:30 am SW 6.0 8.9------ 50.5-----
2024-05-29 12:24 am SW 6.0 8.0------ 50.7-----
2024-05-29 12:18 am SW 5.1 9.9------------
2024-05-29 12:12 amWSW 4.1 8.0------ 50.9-----
2024-05-29 12:06 amWSW 4.1 9.9------ 50.9-----
2024-05-29 12:00 am SW 4.1 8.9------ 50.9-----
2024-05-28 11:54 pm SW 6.0 8.9------ 50.9-----
2024-05-28 11:48 pm SW 6.0 8.0------ 51.1-----
2024-05-28 11:42 pm SW 5.1 8.0------ 51.3-----
2024-05-28 11:36 pmWSW 1.9 7.0------ 51.4-----
2024-05-28 11:30 pmWNW 1.9 6.0------ 51.8-----
2024-05-28 11:24 pmESE 1.0 9.9------ 51.8-----
2024-05-28 11:18 pmWSW 5.1 9.9------------
2024-05-28 11:12 pm SW 7.0 12.0------ 52.0-----
2024-05-28 11:06 pmWSW 5.1 9.9------ 52.0-----
2024-05-28 11:00 pm SW 7.0 9.9------ 51.6-----
2024-05-28 10:54 pm SW 7.0 8.9------ 52.0-----
2024-05-28 10:48 pmSSW 5.1 6.0------ 51.8-----
2024-05-28 10:42 pm SW 5.1 7.0------ 52.2-----
2024-05-28 10:36 pm SW 6.0 8.9------ 52.2-----
2024-05-28 10:30 pm SW 6.0 8.9------ 51.8-----
2024-05-28 10:24 pm SW 5.1 9.9------ 51.6-----
2024-05-28 10:18 pm SW 6.0 11.1------------
2024-05-28 10:12 pm SW 8.9 12.0------ 51.6-----
2024-05-28 10:06 pm SW 9.9 12.0------ 52.0-----
2024-05-28 10:00 pm--------- 52.0-----
2024-05-28 09:54 pm--------- 52.3-----
2024-05-28 09:48 pm SW 8.9 12.0------ 52.5-----
2024-05-28 09:42 pm SW 7.0 11.1------ 52.3-----
2024-05-28 09:36 pm SW 8.9 13.0------ 52.7-----
2024-05-28 09:30 pm SW 8.0 13.0------ 52.5-----
2024-05-28 09:24 pm SW 8.9 12.0------ 52.7-----
2024-05-28 09:18 pm SW 8.9 14.0------ 52.9-----
2024-05-28 09:12 pm SW 8.0 13.0------ 53.1-----
2024-05-28 09:06 pm SW 11.1 13.0------ 52.7-----
2024-05-28 09:00 pm SW 11.1 14.0------ 52.5-----
2024-05-28 08:54 pm SW 12.0 15.0------ 52.5-----
2024-05-28 08:48 pm SW 13.0 14.0------ 53.1-----
2024-05-28 08:42 pmSSW 11.1 15.0------ 53.8-----
2024-05-28 08:36 pmSSW 13.0 17.1------ 54.3-----
2024-05-28 08:30 pm S 12.0 15.9------ 54.1-----
2024-05-28 08:24 pm S 11.1 15.0------ 53.8-----
2024-05-28 08:18 pmSSW 11.1 15.9------ 55.0-----
2024-05-28 08:12 pm S 11.1 13.0------ 54.1-----
2024-05-28 08:06 pm S 12.0 13.0------ 54.5-----
2024-05-28 08:00 pm S 12.0 13.0------ 54.0-----
2024-05-28 07:54 pm S 12.0 14.0------ 54.5-----
2024-05-28 07:48 pm S 12.0 14.0------------
2024-05-28 07:42 pm S 13.0 15.9------ 54.3-----
2024-05-28 07:36 pm S 12.0 15.0------ 53.6-----
2024-05-28 07:30 pm S 13.0 15.0------ 53.8-----
2024-05-28 07:24 pm S 13.0 14.0------ 54.1-----
2024-05-28 07:18 pm S 12.0 15.0------------
2024-05-28 07:12 pm S 12.0 14.0------ 53.2-----
2024-05-28 07:06 pm S 11.1 13.0------ 53.2-----
2024-05-28 07:00 pm S 12.0 12.0------ 53.6-----
2024-05-28 06:54 pm S 12.0 13.0------ 53.8-----
2024-05-28 06:48 pm S 13.0 13.0------------
2024-05-28 06:42 pm S 13.0 15.0------ 53.2-----
2024-05-28 06:36 pm S 13.0 15.0------ 53.1-----
2024-05-28 06:30 pm S 14.0 15.0------ 52.7-----
2024-05-28 06:24 pm S 14.0 15.0------ 52.7-----
2024-05-28 06:18 pm S 13.0 15.0------------
2024-05-28 06:12 pm S 14.0 15.0------ 52.7-----
2024-05-28 06:06 pm S 13.0 13.0------ 52.9-----
2024-05-28 06:00 pm S 9.9 12.0------ 52.5-----
2024-05-28 05:54 pm S 11.1 12.0------ 52.7-----
2024-05-28 05:48 pm S 12.0 12.0------ 52.7-----
2024-05-28 05:42 pm S 11.1 12.0------ 52.7-----
2024-05-28 05:36 pm S 11.1 12.0------ 52.7-----
2024-05-28 05:30 pm S 12.0 13.0------ 52.9-----
2024-05-28 05:24 pm S 11.1 12.0------ 52.9-----
2024-05-28 05:18 pm S 11.1 13.0------------
2024-05-28 05:12 pm S 11.1 13.0------ 52.5-----
2024-05-28 05:06 pm S 11.1 12.0------ 52.2-----
2024-05-28 05:00 pm S 11.1 12.0------ 52.3-----
2024-05-28 04:54 pm S 11.1 13.0------ 52.0-----
2024-05-28 04:48 pm S 12.0 14.0------ 52.0-----
2024-05-28 04:42 pm S 12.0 14.0------ 52.0-----
2024-05-28 04:36 pm S 14.0 15.0------ 52.2-----
2024-05-28 04:30 pmSSE 13.0 14.0------ 52.2-----
2024-05-28 04:24 pmSSE 12.0 13.0------ 52.0-----
2024-05-28 04:18 pm S 12.0 13.0------------
2024-05-28 04:12 pmSSE 12.0 13.0------ 52.2-----
2024-05-28 04:06 pmSSE 11.1 13.0------ 52.2-----
2024-05-28 04:00 pmSSE 9.9 12.0------ 52.0-----
2024-05-28 03:54 pmSSE 12.0 12.0------ 52.0-----
2024-05-28 03:48 pmSSE 9.9 12.0------ 52.0-----
2024-05-28 03:42 pmSSE 11.1 11.1------ 52.0-----
2024-05-28 03:36 pmSSE 9.9 11.1------ 52.0-----
2024-05-28 03:30 pmSSE 9.9 11.1------ 52.0-----
2024-05-28 03:24 pmSSE 8.0 8.9------ 51.6-----
2024-05-28 03:18 pmSSE 8.0 8.9------ 51.4-----
2024-05-28 03:12 pmSSE 8.0 8.9------ 51.3-----
2024-05-28 03:06 pmSSE 8.0 8.9------ 51.3-----
2024-05-28 03:00 pmSSE 8.9 11.1------------
2024-05-28 02:54 pmSSE 8.9 11.1------------
2024-05-28 02:48 pmSSE 9.9 12.0------------
2024-05-28 02:42 pmSSE 11.1 12.0------------
2024-05-28 02:36 pmSSE 11.1 12.0------------
2024-05-28 02:30 pmSSE 9.9 11.1------------
2024-05-28 02:24 pmSSE 8.9 9.9------------
2024-05-28 02:18 pmSSE 8.9 11.1------------
2024-05-28 02:12 pmSSE 9.9 11.1------------
2024-05-28 02:06 pmSSE 9.9 11.1------------
2024-05-28 02:00 pmSSE 9.9 11.1------------
2024-05-28 01:54 pmSSE 9.9 11.1------------
2024-05-28 01:48 pm S 9.9 11.1------------
2024-05-28 01:42 pm S 9.9 11.1------------
2024-05-28 01:36 pm S 9.9 9.9------------
2024-05-28 01:30 pm S 8.9 9.9------------
2024-05-28 01:24 pm S 8.9 9.9------------
2024-05-28 01:18 pm S 8.9 9.9------------
2024-05-28 01:12 pm S 8.0 8.9------------
2024-05-28 01:06 pm S 8.9 8.9------------
2024-05-28 01:00 pmSSE 8.9 9.9------ 50.4-----
2024-05-28 12:54 pmSSE 8.9 8.9------ 50.2-----
2024-05-28 12:48 pm S 8.9 9.9------ 50.4-----
2024-05-28 12:42 pm S 8.0 9.9------ 50.5-----
2024-05-28 12:36 pm S 8.9 11.1------ 50.7-----
2024-05-28 12:30 pm S 9.9 9.9------ 50.5-----
2024-05-28 12:24 pm S 9.9 11.1------ 50.5-----
2024-05-28 12:18 pm S 9.9 9.9------------
2024-05-28 12:12 pm S 9.9 11.1------ 50.5-----
2024-05-28 12:06 pmSSE 9.9 11.1------ 50.4-----
2024-05-28 12:00 pmSSE 9.9 11.1------ 50.5-----
2024-05-28 11:54 am S 9.9 12.0------ 50.5-----
2024-05-28 11:48 am S 9.9 11.1------ 50.5-----
2024-05-28 11:42 am S 8.9 9.9------ 50.4-----
2024-05-28 11:36 am S 8.0 9.9------ 50.4-----
2024-05-28 11:30 am S 8.9 9.9------ 50.5-----
2024-05-28 11:24 am S 8.9 9.9------ 50.5-----
2024-05-28 11:18 am S 8.0 11.1------------
2024-05-28 11:12 am S 9.9 11.1------ 50.5-----
2024-05-28 11:06 am S 8.0 8.9------ 50.4-----
2024-05-28 11:00 am S 8.9 11.1------ 50.4-----
2024-05-28 10:54 amSSE 8.9 11.1------ 50.2-----
2024-05-28 10:48 am S 9.9 11.1------ 50.2-----
2024-05-28 10:42 am S 9.9 9.9------ 50.0-----
2024-05-28 10:36 am S 8.0 9.9------ 49.8-----
2024-05-28 10:30 am S 9.9 11.1------ 49.8-----
2024-05-28 10:24 am S 9.9 12.0------ 49.6-----
2024-05-28 10:18 am S 11.1 12.0------------
2024-05-28 10:12 am S 9.9 11.1------ 49.6-----
2024-05-28 10:06 am S 8.9 11.1------ 49.8-----
2024-05-28 10:00 am S 8.0 8.9------ 50.2-----
2024-05-28 09:54 am S 8.0 8.9------ 50.2-----
2024-05-28 09:48 am S 8.0 8.9------------
2024-05-28 09:42 am S 7.0 7.0------ 50.2-----
2024-05-28 09:36 amSSE 6.0 8.0------ 50.4-----
2024-05-28 09:30 amSSE 8.0 8.0------ 50.4-----
2024-05-28 09:24 amSSE 8.0 8.9------ 50.4-----
2024-05-28 09:18 amSSE 8.0 9.9------ 50.2-----
2024-05-28 09:12 amSSE 8.9 9.9------ 50.0-----
2024-05-28 09:06 amSSE 8.0 8.9------ 50.0-----
2024-05-28 09:00 amSSE 8.0 8.9------ 49.8-----
2024-05-28 08:54 amSSE 8.0 8.0------ 49.8-----
2024-05-28 08:48 amSSE 7.0 8.0------------
2024-05-28 08:42 amSSE 7.0 8.0------ 49.8-----
2024-05-28 08:36 amSSE 7.0 8.0------ 49.8-----
2024-05-28 08:30 amSSE 7.0 8.0------ 49.8-----
2024-05-28 08:24 am S 8.0 8.9------ 49.8-----
2024-05-28 08:18 am S 7.0 8.0------ 49.8-----
2024-05-28 08:12 am S 6.0 7.0------ 49.8-----
2024-05-28 08:06 am S 7.0 8.9------ 49.8-----
2024-05-28 08:00 am S 8.9 9.9------ 49.8-----
2024-05-28 07:54 am S 9.9 11.1------ 49.8-----
2024-05-28 07:48 am S 8.9 11.1------ 49.8-----
2024-05-28 07:42 am S 8.9 11.1------ 49.6-----
2024-05-28 07:36 am S 8.9 11.1------ 49.6-----
2024-05-28 07:30 am S 8.9 9.9------ 49.6-----
2024-05-28 07:24 am S 8.9 11.1------ 49.8-----
2024-05-28 07:18 am S 9.9 11.1------ 49.8-----
2024-05-28 07:12 am S 8.9 9.9------ 50.0-----
2024-05-28 07:06 am S 8.9 9.9------ 50.0-----
2024-05-28 07:00 am S 8.9 11.1------ 49.8-----
2024-05-28 06:54 am S 9.9 11.1------ 50.0-----
2024-05-28 06:48 am S 9.9 11.1------ 50.2-----
2024-05-28 06:42 am S 8.0 8.9------ 50.2-----
2024-05-28 06:36 am S 7.0 8.0------ 50.0-----
2024-05-28 06:30 amSSW 7.0 8.0------ 50.2-----
2024-05-28 06:24 amSSW 6.0 7.0------ 50.2-----
2024-05-28 06:18 am S 6.0 7.0------------
2024-05-28 06:12 am S 6.0 7.0------ 50.4-----
2024-05-28 06:06 am S 6.0 7.0------ 50.4-----
2024-05-28 06:00 am S 6.0 6.0------ 50.4-----
2024-05-28 05:54 amSSW 4.1 5.1------ 50.9-----
2024-05-28 05:48 am S 5.1 5.1------------
2024-05-28 05:42 am S 4.1 4.1------ 50.9-----
2024-05-28 05:36 amSSW 2.9 2.9------ 50.7-----
2024-05-28 05:30 amSSW 1.9 2.9------ 50.7-----
2024-05-28 05:24 am S 2.9 4.1------ 50.9-----
2024-05-28 05:18 am S 4.1 4.1------------
2024-05-28 05:12 am S 2.9 4.1------ 50.9-----
2024-05-28 05:06 amSSE 1.9 1.9------ 50.9-----
2024-05-28 05:00 amSSE 1.9 1.9------ 51.1-----
2024-05-28 04:54 am S 1.9 1.9------ 51.1-----
2024-05-28 04:48 am S 1.9 1.9------------
2024-05-28 04:42 amSSE 1.0 1.9------ 51.1-----
2024-05-28 04:36 amSSE 1.0 1.0------ 51.1-----
2024-05-28 04:30 am- 0.0 1.0------ 51.1-----
2024-05-28 04:24 amESE 1.0 1.9------ 51.1-----
2024-05-28 04:18 amESE 1.0 1.9------ 50.9-----
2024-05-28 04:12 amESE 1.9 1.9------ 50.7-----
2024-05-28 04:06 amESE 1.0 1.0------ 50.7-----
2024-05-28 04:00 am- 0.0 1.0------ 50.9-----
2024-05-28 03:54 am- 0.0 1.0------ 50.9-----
2024-05-28 03:48 am SE 1.0 1.9------ 50.9-----
2024-05-28 03:42 amSSE 1.9 2.9------ 50.9-----
2024-05-28 03:36 amSSE 1.9 1.9------ 50.9-----
2024-05-28 03:30 am- 0.0 1.9------ 50.9-----
2024-05-28 03:24 am SE 1.9 1.9------ 50.9-----
2024-05-28 03:18 amESE 1.9 1.9------ 50.9-----
2024-05-28 03:12 amSSE 1.9 2.9------ 50.9-----
2024-05-28 03:06 amESE 2.9 2.9------ 50.9-----
2024-05-28 03:00 amESE 1.9 2.9------ 50.9-----
2024-05-28 02:54 amESE 1.0 1.9------ 50.9-----
2024-05-28 02:48 amSSE 1.0 1.9------------
2024-05-28 02:42 am S 1.0 1.0------ 51.1-----
2024-05-28 02:36 amSSE 1.0 1.9------ 51.1-----
2024-05-28 02:30 amSSE 1.9 1.9------ 51.1-----
2024-05-28 02:24 am SE 1.9 2.9------ 50.9-----
2024-05-28 02:18 amSSE 1.9 1.9------ 50.9-----
2024-05-28 02:12 am SE 1.0 1.9------ 51.1-----
2024-05-28 02:06 am SE 1.9 2.9------ 51.1-----
2024-05-28 02:00 amSSE 1.9 2.9------ 51.3-----
2024-05-28 01:54 am S 2.9 4.1------ 51.3-----